Terminal Aerodrome Forecast
Issued by NWS Cleveland, OH

Home | Current Version | Previous Version | Graphics & Text | Print | Product List | Glossary Off
Versions: 1 2 3 4 5 6 7 8 9 10 11 12 13 14 15 16 17 18

000
FTUS41 KCLE 190500 RRA
TAFERI
TAF
KERI 190541Z 1906/2006 05008KT P6SM BKN200
     FM191300 10012G20KT P6SM SCT120 BKN200
     FM192000 10015G25KT P6SM VCSH BKN060 OVC100
     FM192300 11015G25KT 5SM -SHRA BKN035 OVC060=

USA.gov is the U.S. government's official web portal to all federal, state and local government web resources and services.